• In Uzbekistan
  • List of Countries
  • For 7 days
  • Water Temperature
  • Satellite Maps
  • Weather Map
  • Weather Widgets
  • user-avatar
    Login

    Hourly Weather Dorog

    Today, 21 January, Sunday

    Time Temperature Precipitation Wind Pressure Humidity
    00:00 -1°C° 0 mm 3 mps 739 mmHg 86%
    01:00 -1°C° 0 mm 3 mps 738 mmHg 85%
    02:00 -2°C° 0.2 mm 4 mps 738 mmHg 85%
    03:00 -2°C° 0.2 mm 4 mps 737 mmHg 85%
    04:00 -2°C° 0.2 mm 4 mps 737 mmHg 85%
    05:00 -2°C° 0.8 mm 4 mps 737 mmHg 88%
    06:00 -2°C° 0.8 mm 4 mps 736 mmHg 91%
    07:00 -1°C° 0 mm 3 mps 737 mmHg 94%
    08:00 -1°C° 0.4 mm 3 mps 737 mmHg 93%
    09:00 -1°C° 0.4 mm 3 mps 737 mmHg 93%
    10:00 -1°C° 0.4 mm 2 mps 738 mmHg 93%
    11:00 +1°C° 0.2 mm 2 mps 738 mmHg 92%
    12:00 0°C° 0.2 mm 3 mps 738 mmHg 91%
    13:00 0°C° 0 mm 3 mps 739 mmHg 90%
    14:00 0°C° 0 mm 3 mps 739 mmHg 89%
    15:00 0°C° 0 mm 3 mps 740 mmHg 88%
    16:00 0°C° 0 mm 3 mps 741 mmHg 88%
    17:00 -2°C° 0 mm 4 mps 741 mmHg 88%
    18:00 -2°C° 0 mm 4 mps 742 mmHg 88%
    19:00 -3°C° 0 mm 4 mps 742 mmHg 89%
    20:00 -3°C° 0 mm 4 mps 743 mmHg 88%
    21:00 -3°C° 0 mm 4 mps 744 mmHg 87%
    22:00 -4°C° 0 mm 5 mps 744 mmHg 85%
    23:00 -3°C° 0 mm 4 mps 745 mmHg 85%

    Tomorrow, 22 January, Monday

    Time Temperature Precipitation Wind Pressure Humidity
    00:00 -4°C° 0 mm 4 mps 745 mmHg 84%
    01:00 -4°C° 0 mm 4 mps 746 mmHg 84%
    02:00 -4°C° 0 mm 4 mps 746 mmHg 85%
    03:00 -4°C° 0 mm 3 mps 746 mmHg 85%
    04:00 -5°C° 0 mm 3 mps 746 mmHg 86%
    05:00 -5°C° 0 mm 3 mps 746 mmHg 87%
    06:00 -4°C° 0 mm 2 mps 746 mmHg 87%
    07:00 -4°C° 0 mm 2 mps 747 mmHg 88%
    08:00 -3°C° 0 mm 2 mps 747 mmHg 84%
    09:00 -1°C° 0 mm 1 mps 747 mmHg 79%
    10:00 0°C° 0 mm 1 mps 747 mmHg 75%
    11:00 +1°C° 0 mm 1 mps 747 mmHg 72%
    12:00 +2°C° 0 mm 1 mps 747 mmHg 68%
    13:00 +2°C° 0 mm 0 mps 747 mmHg 65%
    14:00 +2°C° 0 mm 1 mps 747 mmHg 68%
    15:00 +1°C° 0 mm 1 mps 747 mmHg 70%
    16:00 +1°C° 0 mm 1 mps 747 mmHg 73%
    17:00 +1°C° 0 mm 1 mps 747 mmHg 75%
    18:00 0°C° 0 mm 1 mps 747 mmHg 76%
    19:00 0°C° 0 mm 1 mps 748 mmHg 77%
    20:00 0°C° 0 mm 1 mps 748 mmHg 78%
    21:00 0°C° 0 mm 1 mps 748 mmHg 79%
    22:00 -1°C° 0 mm 1 mps 748 mmHg 81%
    23:00 0°C° 0 mm 1 mps 749 mmHg 81%

    Day after tomorrow, 23 January, Tuesday

    Time Temperature Precipitation Wind Pressure Humidity
    00:00 0°C° 0 mm 1 mps 749 mmHg 82%
    01:00 0°C° 0 mm 1 mps 749 mmHg 82%
    02:00 0°C° 0.1 mm 1 mps 749 mmHg 84%
    03:00 0°C° 0.1 mm 1 mps 749 mmHg 86%
    04:00 0°C° 0.1 mm 1 mps 749 mmHg 87%
    05:00 -2°C° 0.4 mm 2 mps 750 mmHg 89%
    06:00 -2°C° 0.4 mm 2 mps 750 mmHg 91%
    07:00 -2°C° 0.4 mm 2 mps 750 mmHg 93%
    08:00 -2°C° 0.3 mm 2 mps 751 mmHg 93%
    09:00 -1°C° 0.3 mm 2 mps 752 mmHg 92%
    10:00 -1°C° 0.3 mm 2 mps 752 mmHg 92%
    11:00 +1°C° 0.1 mm 1 mps 753 mmHg 92%
    12:00 +2°C° 0.1 mm 1 mps 753 mmHg 91%
    13:00 +2°C° 0.1 mm 1 mps 753 mmHg 91%
    14:00 +2°C° 0 mm 1 mps 754 mmHg 92%
    15:00 +2°C° 0 mm 1 mps 754 mmHg 93%
    16:00 +1°C° 0 mm 0 mps 755 mmHg 94%
    17:00 0°C° 0 mm 0 mps 755 mmHg 94%
    18:00 +1°C° 0 mm 1 mps 756 mmHg 94%
    19:00 0°C° 0 mm 1 mps 756 mmHg 94%
    20:00 0°C° 0 mm 1 mps 756 mmHg 94%
    21:00 0°C° 0 mm 1 mps 757 mmHg 94%
    22:00 0°C° 0 mm 1 mps 757 mmHg 94%
    23:00 0°C° 0 mm 1 mps 758 mmHg 94%

    24 January, Wednesday

    Time Temperature Precipitation Wind Pressure Humidity
    00:00 -1°C° 0 mm 1 mps 758 mmHg 94%
    01:00 -1°C° 0 mm 1 mps 758 mmHg 94%
    02:00 -1°C° 0 mm 1 mps 758 mmHg 94%
    03:00 -1°C° 0 mm 1 mps 758 mmHg 94%
    04:00 -1°C° 0 mm 1 mps 758 mmHg 94%
    05:00 -3°C° 0 mm 2 mps 758 mmHg 94%
    06:00 -3°C° 0 mm 2 mps 758 mmHg 94%
    07:00 -3°C° 0 mm 2 mps 759 mmHg 94%
    08:00 -2°C° 0 mm 2 mps 759 mmHg 92%
    09:00 -2°C° 0 mm 2 mps 759 mmHg 91%
    10:00 -1°C° 0 mm 2 mps 759 mmHg 89%
    11:00 0°C° 0 mm 3 mps 759 mmHg 88%
    12:00 0°C° 0 mm 3 mps 759 mmHg 87%
    13:00 +1°C° 0 mm 3 mps 759 mmHg 86%
    14:00 +1°C° 0 mm 3 mps 758 mmHg 87%
    15:00 0°C° 0 mm 3 mps 758 mmHg 88%
    16:00 0°C° 0 mm 3 mps 758 mmHg 89%
    17:00 0°C° 0 mm 3 mps 758 mmHg 90%
    18:00 -1°C° 0 mm 3 mps 758 mmHg 91%
    19:00 -1°C° 0 mm 3 mps 757 mmHg 92%
    20:00 -1°C° 0 mm 3 mps 757 mmHg 92%
    21:00 -2°C° 0 mm 3 mps 757 mmHg 93%
    22:00 -2°C° 0 mm 3 mps 757 mmHg 93%
    23:00 -2°C° 0 mm 3 mps 757 mmHg 93%

    25 January, Thursday

    Time Temperature Precipitation Wind Pressure Humidity
    00:00 -2°C° 0 mm 3 mps 757 mmHg 92%
    01:00 -2°C° 0 mm 3 mps 756 mmHg 92%
    02:00 -2°C° 0 mm 3 mps 756 mmHg 92%
    03:00 -2°C° 0 mm 3 mps 755 mmHg 91%
    04:00 -2°C° 0 mm 3 mps 755 mmHg 91%
    05:00 -4°C° 0 mm 3 mps 755 mmHg 90%
    06:00 -4°C° 0 mm 3 mps 755 mmHg 90%
    07:00 -4°C° 0 mm 3 mps 755 mmHg 90%
    08:00 -2°C° 0 mm 3 mps 754 mmHg 87%
    09:00 -3°C° 0 mm 4 mps 754 mmHg 84%
    10:00 -2°C° 0 mm 4 mps 754 mmHg 81%
    11:00 -1°C° 0 mm 4 mps 754 mmHg 79%
    12:00 0°C° 0 mm 4 mps 753 mmHg 76%
    13:00 0°C° 0 mm 4 mps 752 mmHg 74%
    14:00 0°C° 0 mm 4 mps 752 mmHg 75%
    15:00 +1°C° 0 mm 3 mps 752 mmHg 77%
    16:00 0°C° 0 mm 3 mps 751 mmHg 78%
    17:00 0°C° 0 mm 3 mps 751 mmHg 79%
    18:00 -1°C° 0 mm 4 mps 751 mmHg 79%
    19:00 -1°C° 0 mm 4 mps 751 mmHg 80%
    20:00 -1°C° 0 mm 4 mps 750 mmHg 80%
    21:00 -1°C° 0 mm 4 mps 750 mmHg 80%
    22:00 -1°C° 0 mm 4 mps 750 mmHg 79%
    23:00 -1°C° 0 mm 4 mps 750 mmHg 80%

    26 January, Friday

    Time Temperature Precipitation Wind Pressure Humidity
    00:00 0°C° 0 mm 3 mps 750 mmHg 80%
    01:00 0°C° 0 mm 3 mps 749 mmHg 81%
    02:00 0°C° 0 mm 3 mps 749 mmHg 81%
    03:00 0°C° 0 mm 3 mps 749 mmHg 82%
    04:00 0°C° 0 mm 3 mps 748 mmHg 82%
    05:00 0°C° 0 mm 3 mps 748 mmHg 83%
    06:00 0°C° 0 mm 3 mps 748 mmHg 83%
    07:00 0°C° 0 mm 3 mps 748 mmHg 83%
    08:00 +1°C° 0.1 mm 3 mps 749 mmHg 83%
    09:00 +1°C° 0.1 mm 3 mps 749 mmHg 82%
    10:00 +1°C° 0.1 mm 3 mps 749 mmHg 81%
    11:00 +2°C° 0 mm 3 mps 749 mmHg 80%
    12:00 +2°C° 0 mm 3 mps 749 mmHg 78%
    13:00 +3°C° 0 mm 3 mps 749 mmHg 76%
    14:00 +3°C° 0 mm 3 mps 749 mmHg 77%
    15:00 +3°C° 0 mm 3 mps 749 mmHg 77%
    16:00 +2°C° 0 mm 3 mps 749 mmHg 78%
    17:00 +2°C° 0 mm 3 mps 749 mmHg 79%
    18:00 +1°C° 0 mm 3 mps 749 mmHg 79%
    19:00 +1°C° 0 mm 3 mps 750 mmHg 80%
    20:00 +2°C° 0 mm 2 mps 750 mmHg 80%
    21:00 +2°C° 0 mm 2 mps 750 mmHg 80%
    22:00 +2°C° 0 mm 2 mps 751 mmHg 81%
    23:00 +2°C° 0 mm 2 mps 751 mmHg 81%
    Show more